When you browse on this site, cookies collect data to enhance your experience and personalize the content and advertising you see.
Visit our Privacy Policy to learn more. By continuing to use the site, you agree to this use of cookies and data.
  • In Österreich
  • Länderverzeichnis
  • Für 7 Tage
  • Wassertemperatur
  • Wetterkarte
  • News
  • Widgets
  • user-avatar
    Anmelden

    Stündliche Wetter Warna

    Heute, 29 Januar, Mittwoch

    Zeit Temperatur Niederschläge Wind Luftdruck Luftfeuchtigkeit
    00:00 +5°C° 0 mm 3 m/S 742 mmHg 81%
    01:00 +5°C° 0 mm 3 m/S 742 mmHg 80%
    02:00 +4°C° 0 mm 3 m/S 741 mmHg 80%
    03:00 +5°C° 0 mm 3 m/S 741 mmHg 81%
    04:00 +5°C° 0 mm 3 m/S 740 mmHg 82%
    05:00 +5°C° 0 mm 4 m/S 740 mmHg 84%
    06:00 +5°C° 0 mm 4 m/S 740 mmHg 84%
    07:00 +5°C° 0 mm 4 m/S 739 mmHg 84%
    08:00 +5°C° 0 mm 4 m/S 739 mmHg 83%
    09:00 +6°C° 0 mm 4 m/S 739 mmHg 78%
    10:00 +8°C° 0 mm 4 m/S 738 mmHg 73%
    11:00 +10°C° 0 mm 4 m/S 738 mmHg 68%
    12:00 +9°C° 0 mm 6 m/S 739 mmHg 68%
    13:00 +9°C° 0 mm 8 m/S 739 mmHg 67%
    14:00 +7°C° 0 mm 10 m/S 739 mmHg 66%
    15:00 +7°C° 0 mm 8 m/S 740 mmHg 64%
    16:00 +6°C° 0 mm 7 m/S 740 mmHg 63%
    17:00 +7°C° 0 mm 6 m/S 741 mmHg 61%
    18:00 +6°C° 0 mm 5 m/S 741 mmHg 62%
    19:00 +5°C° 0 mm 4 m/S 742 mmHg 64%
    20:00 +5°C° 0 mm 3 m/S 742 mmHg 65%
    21:00 +4°C° 0 mm 3 m/S 742 mmHg 64%
    22:00 +4°C° 0 mm 3 m/S 743 mmHg 64%
    23:00 +5°C° 0 mm 2 m/S 743 mmHg 63%

    Morgen, 30 Januar, Donnerstag

    Zeit Temperatur Niederschläge Wind Luftdruck Luftfeuchtigkeit
    00:00 +5°C° 0 mm 2 m/S 743 mmHg 64%
    01:00 +4°C° 0 mm 2 m/S 743 mmHg 65%
    02:00 +5°C° 0 mm 1 m/S 743 mmHg 66%
    03:00 +4°C° 0.1 mm 2 m/S 743 mmHg 67%
    04:00 +3°C° 0.1 mm 3 m/S 743 mmHg 69%
    05:00 +4°C° 0.1 mm 4 m/S 743 mmHg 70%
    06:00 +3°C° 0.1 mm 4 m/S 744 mmHg 75%
    07:00 +3°C° 0.1 mm 3 m/S 744 mmHg 80%
    08:00 +3°C° 0.1 mm 3 m/S 745 mmHg 85%
    09:00 +4°C° 0 mm 4 m/S 745 mmHg 77%
    10:00 +5°C° 0 mm 5 m/S 745 mmHg 69%
    11:00 +4°C° 0 mm 6 m/S 745 mmHg 61%
    12:00 +5°C° 0 mm 6 m/S 745 mmHg 55%
    13:00 +7°C° 0 mm 6 m/S 745 mmHg 50%
    14:00 +7°C° 0 mm 6 m/S 745 mmHg 44%
    15:00 +7°C° 0 mm 6 m/S 745 mmHg 46%
    16:00 +6°C° 0 mm 5 m/S 745 mmHg 48%
    17:00 +5°C° 0 mm 4 m/S 745 mmHg 50%
    18:00 +4°C° 0 mm 4 m/S 746 mmHg 55%
    19:00 +3°C° 0 mm 4 m/S 746 mmHg 60%
    20:00 +3°C° 0 mm 4 m/S 747 mmHg 64%
    21:00 +1°C° 0 mm 4 m/S 747 mmHg 66%
    22:00 +1°C° 0 mm 5 m/S 747 mmHg 68%
    23:00 +1°C° 0 mm 5 m/S 747 mmHg 70%

    übermorgen, 31 Januar, Freitag

    Zeit Temperatur Niederschläge Wind Luftdruck Luftfeuchtigkeit
    00:00 0°C° 0 mm 5 m/S 747 mmHg 73%
    01:00 0°C° 0 mm 5 m/S 748 mmHg 75%
    02:00 0°C° 0 mm 5 m/S 748 mmHg 77%
    03:00 -1°C° 0 mm 5 m/S 748 mmHg 78%
    04:00 -1°C° 0 mm 4 m/S 748 mmHg 79%
    05:00 -1°C° 0 mm 4 m/S 747 mmHg 80%
    06:00 -1°C° 0 mm 4 m/S 747 mmHg 79%
    07:00 -1°C° 0 mm 4 m/S 747 mmHg 77%
    08:00 -1°C° 0 mm 4 m/S 748 mmHg 75%
    09:00 +1°C° 0 mm 4 m/S 747 mmHg 66%
    10:00 +4°C° 0 mm 4 m/S 747 mmHg 58%
    11:00 +5°C° 0 mm 4 m/S 747 mmHg 50%
    12:00 +6°C° 0 mm 4 m/S 746 mmHg 47%
    13:00 +7°C° 0 mm 5 m/S 746 mmHg 45%
    14:00 +7°C° 0 mm 5 m/S 745 mmHg 43%
    15:00 +7°C° 0 mm 5 m/S 744 mmHg 45%
    16:00 +7°C° 0 mm 5 m/S 744 mmHg 48%
    17:00 +6°C° 0 mm 5 m/S 743 mmHg 50%
    18:00 +6°C° 0 mm 5 m/S 743 mmHg 50%
    19:00 +6°C° 0 mm 5 m/S 743 mmHg 50%
    20:00 +6°C° 0 mm 5 m/S 742 mmHg 50%
    21:00 +6°C° 0 mm 5 m/S 742 mmHg 52%
    22:00 +7°C° 0 mm 5 m/S 742 mmHg 54%
    23:00 +7°C° 0 mm 5 m/S 742 mmHg 56%

    1 Februar, Samstag

    Zeit Temperatur Niederschläge Wind Luftdruck Luftfeuchtigkeit
    00:00 +6°C° 0 mm 5 m/S 742 mmHg 61%
    01:00 +6°C° 0 mm 4 m/S 743 mmHg 67%
    02:00 +5°C° 0 mm 4 m/S 743 mmHg 73%
    03:00 +5°C° 0 mm 4 m/S 743 mmHg 76%
    04:00 +5°C° 0 mm 3 m/S 743 mmHg 79%
    05:00 +4°C° 0 mm 3 m/S 744 mmHg 82%
    06:00 +5°C° 0 mm 3 m/S 744 mmHg 83%
    07:00 +5°C° 0 mm 3 m/S 745 mmHg 84%
    08:00 +5°C° 0 mm 3 m/S 745 mmHg 84%
    09:00 +7°C° 0 mm 3 m/S 746 mmHg 79%
    10:00 +9°C° 0 mm 3 m/S 746 mmHg 74%
    11:00 +10°C° 0 mm 3 m/S 746 mmHg 69%
    12:00 +12°C° 0 mm 2 m/S 746 mmHg 65%
    13:00 +13°C° 0 mm 2 m/S 746 mmHg 60%
    14:00 +14°C° 0 mm 2 m/S 746 mmHg 56%
    15:00 +12°C° 0 mm 3 m/S 746 mmHg 60%
    16:00 +11°C° 0 mm 3 m/S 746 mmHg 64%
    17:00 +11°C° 0 mm 3 m/S 746 mmHg 69%
    18:00 +10°C° 0 mm 3 m/S 746 mmHg 72%
    19:00 +9°C° 0 mm 3 m/S 746 mmHg 75%
    20:00 +9°C° 0 mm 3 m/S 746 mmHg 78%
    21:00 +8°C° 0 mm 3 m/S 746 mmHg 79%
    22:00 +8°C° 0 mm 3 m/S 746 mmHg 81%
    23:00 +8°C° 0 mm 3 m/S 746 mmHg 82%

    2 Februar, Sonntag

    Zeit Temperatur Niederschläge Wind Luftdruck Luftfeuchtigkeit
    00:00 +8°C° 0 mm 3 m/S 745 mmHg 82%
    01:00 +8°C° 0 mm 3 m/S 745 mmHg 81%
    02:00 +7°C° 0 mm 3 m/S 745 mmHg 81%
    03:00 +7°C° 0 mm 3 m/S 745 mmHg 81%
    04:00 +7°C° 0 mm 3 m/S 744 mmHg 81%
    05:00 +7°C° 0 mm 3 m/S 744 mmHg 80%
    06:00 +7°C° 0 mm 3 m/S 744 mmHg 81%
    07:00 +7°C° 0 mm 3 m/S 744 mmHg 82%
    08:00 +7°C° 0 mm 3 m/S 744 mmHg 82%
    09:00 +8°C° 0 mm 3 m/S 744 mmHg 75%
    10:00 +10°C° 0 mm 3 m/S 744 mmHg 68%
    11:00 +12°C° 0 mm 3 m/S 743 mmHg 61%
    12:00 +13°C° 0 mm 4 m/S 743 mmHg 58%
    13:00 +14°C° 0 mm 4 m/S 743 mmHg 54%
    14:00 +15°C° 0 mm 5 m/S 743 mmHg 50%
    15:00 +13°C° 0.1 mm 6 m/S 743 mmHg 57%
    16:00 +11°C° 0.1 mm 7 m/S 743 mmHg 65%
    17:00 +10°C° 0.1 mm 8 m/S 743 mmHg 72%
    18:00 +9°C° 0.2 mm 8 m/S 744 mmHg 65%
    19:00 +9°C° 0.2 mm 8 m/S 744 mmHg 58%
    20:00 +7°C° 0.2 mm 8 m/S 745 mmHg 51%
    21:00 +6°C° 0 mm 8 m/S 745 mmHg 52%
    22:00 +6°C° 0 mm 7 m/S 745 mmHg 54%
    23:00 +5°C° 0 mm 7 m/S 746 mmHg 55%

    3 Februar, Montag

    Zeit Temperatur Niederschläge Wind Luftdruck Luftfeuchtigkeit
    00:00 +4°C° 0 mm 7 m/S 746 mmHg 59%
    01:00 +4°C° 0 mm 6 m/S 746 mmHg 62%
    02:00 +3°C° 0 mm 6 m/S 746 mmHg 66%
    03:00 +3°C° 0 mm 5 m/S 746 mmHg 70%
    04:00 +3°C° 0 mm 5 m/S 745 mmHg 74%
    05:00 +3°C° 0 mm 4 m/S 745 mmHg 79%
    06:00 +3°C° 0 mm 4 m/S 745 mmHg 79%
    07:00 +3°C° 0 mm 3 m/S 745 mmHg 79%
    08:00 +3°C° 0 mm 3 m/S 746 mmHg 79%
    09:00 +5°C° 0 mm 3 m/S 746 mmHg 70%
    10:00 +7°C° 0 mm 4 m/S 745 mmHg 60%
    11:00 +8°C° 0 mm 5 m/S 745 mmHg 50%
    12:00 +10°C° 0 mm 5 m/S 745 mmHg 46%
    13:00 +12°C° 0 mm 5 m/S 744 mmHg 42%
    14:00 +13°C° 0 mm 6 m/S 743 mmHg 38%
    15:00 +12°C° 0 mm 5 m/S 743 mmHg 44%
    16:00 +12°C° 0 mm 5 m/S 743 mmHg 51%
    17:00 +10°C° 0 mm 5 m/S 743 mmHg 57%
    18:00 +10°C° 0 mm 5 m/S 743 mmHg 58%
    19:00 +10°C° 0 mm 5 m/S 743 mmHg 59%
    20:00 +10°C° 0 mm 6 m/S 743 mmHg 60%
    21:00 +9°C° 0 mm 6 m/S 744 mmHg 62%
    22:00 +8°C° 0 mm 5 m/S 745 mmHg 64%
    23:00 +7°C° 0 mm 5 m/S 745 mmHg 66%
    Mehr zeigen